This demonstration page uses our WeatherBlox Daily Observations layout. Learn more.

Left ArrowRight Arrow

31.84235, -102.49876

Hourly Observations for November 3, 2015

Temp ( °F °C ) Dew Point ( °F °C ) Humidity (%) Winds ( mph kmh ) Pressure ( in mb ) Visibility ( mi km ) Precip ( " mm )
12:53 am 00:53 Clear 57 13.9 44 6.7 62 62 S 7 11 29.84 1011 10 16 0.00 0.00
1:53 am 01:53 Clear 57 13.9 44 6.7 62 62 S 7 11 29.84 1011 10 16 0.00 0.00
2:53 am 02:53 Clear 55 12.8 45 7.2 69 69 S 7 11 29.83 1010 10 16 0.00 0.00
3:53 am 03:53 Clear 57 13.9 45 7.2 64 64 S 9 15 29.81 1010 10 16 0.00 0.00
4:53 am 04:53 Clear 54 12.2 45 7.2 72 72 SSW 5 7 29.82 1010 7 11 0.00 0.00
5:53 am 05:53 Clear 54 12.2 44 6.7 69 69 S 6 9 29.84 1010 10 16 0.00 0.00
6:53 am 06:53 Clear 53 11.7 44 6.7 72 72 SSE 6 9 29.85 1011 10 16 0.00 0.00
7:53 am 07:53 Sunny 56 13.3 45 7.2 67 67 SSE 9 15 29.87 1012 10 16 0.00 0.00
8:53 am 08:53 Sunny 62 16.7 46 7.8 56 56 S 13 20 29.89 1012 10 16 0.00 0.00
9:53 am 09:53 Sunny 68 20 46 7.8 45 45 S 15 24 29.89 1012 10 16 0.00 0.00
10:53 am 10:53 Sunny 73 22.8 45 7.2 37 37 S 15 24 29.88 1012 10 16 0.00 0.00
11:53 am 11:53 Sunny 75 23.9 46 7.8 36 36 S 17 28 29.86 1011 10 16 0.00 0.00
12:53 pm 12:53 Sunny with Light Rain 78 25.6 46 7.8 32 32 S 12 19 29.84 1010 10 16 0.00 0.03
1:53 pm 13:53 Sunny with Light Rain 80 26.7 44 6.7 28 28 S 16 26 29.81 1010 10 16 0.00 0.03
2:53 pm 14:53 Sunny with Light Rain 80 26.7 43 6.1 27 27 SSW 18 30 29.80 1009 9 14 0.00 0.03
3:53 pm 15:53 Sunny with Light Rain 80 26.7 43 6.1 27 27 S 20 31 29.80 1009 9 14 0.00 0.03
4:53 pm 16:53 Sunny with Light Rain 78 25.6 44 6.7 30 30 SSE 15 24 29.80 1009 10 16 0.00 0.03
5:53 pm 17:53 Sunny with Light Rain 74 23.3 46 7.8 37 37 SSE 14 22 29.80 1009 10 16 0.00 0.03
6:53 pm 18:53 Clear with Light Rain 70 21.1 47 8.3 44 44 SSE 10 17 29.82 1010 10 16 0.00 0.03
7:53 pm 19:53 Clear with Light Rain 67 19.4 50 10 55 55 S 9 15 29.85 1011 10 16 0.00 0.03
8:53 pm 20:53 Clear with Light Rain 66 18.9 54 12.2 65 65 S 16 26 29.85 1011 10 16 0.00 0.03
9:53 pm 21:53 Clear 65 18.3 56 13.3 73 73 S 14 22 29.85 1011 10 16 0.00 0.03
10:53 pm 22:53 Clear 64 17.8 57 13.9 78 78 S 16 26 29.85 1011 10 16 0.00 0.00
11:53 pm 23:53 Clear 64 17.8 58 14.4 81 81 S 15 24 29.84 1011 10 16 0.00 0.00

Powered by AerisWeather